STARLINK-37507, 68916

Orbit data source: Space-Track

STARLINK-37507, 68916 is a payload satellite owned by SpaceX/Seattle (US) in SSO that was launched on Thu, 30 Apr 2026 UTC via an FALCON 9 launch vehicle from the Air Force Western Test Range (AFWTR). Payload-class satellites include a variety of spacecraft equipped with specific instruments for various scientific and technological missions. These include communications satellites like Starlink; space stations such as the ISS; scientific satellites like the Hubble; Earth observation satellites from companies like Planet Labs, Umbra, and HawkEye 360; GPS; miniature CubeSats for education and research; and military/defense satellites.

Not visible in the next 10 days
Identifier
68916, 2026-097X
Orbit
SSO
Country
Flag of USUS
Related business
Manufacturer
SpaceX/Seattle
Mission
Operational spacecraft
Bus & Motor
STARLINK V2MO, Unknown motor
Mass
575 kg wet, ~530 kg dry
Launch date (UTC)
2026-04-30 (6 days ago)
Launch vehicle
FALCON 9
Launch site
Air Force Western Test Range (AFWTR)
Object type
Payload
Rocket body
Debris
Shape & HBR
Unknown
Radar Cross Section
RCS unknown

Expand to show TLE details & history
Last TLE update: 5 hours ago

TLE from 5 hours ago
0 STARLINK-37507
1 68916U 26097X   26126.25002315 -.02157456  12902-2 -58669-2 0  9993
2 68916  97.2879 321.3081 0001612  87.8013 137.8560 15.94331299  2164
Epoch: 2026-05-06T06:00Z
TLE epoch observation values (Epoch: 2026-05-06T06:00:02.000Z)
Latitude
-45.4751°
Longitude
179.75783°
Altitude
308.65 km
Speed
7.721 km/s
True Right ascension
08h 55m 31s
True Declination
-45° 17' 30"
Sunlit
Object was in daylight at epoch
Visualization orbit readout
Latitude
Unknown
Longitude
Unknown
Altitude
Unknown
Speed
Unknown
Apparent Right ascension
Unknown
Apparent Declination
Unknown
Sunlit
N/A
Visualization observer readout
Local Sidereal Time
18:52:18
Azimuth
Unknown
Elevation
Unknown
Doppler factor
Unknown
Orbital elements
Apogee altitude
288.115 km
Perigee altitude
285.966 km
Semi-major axis
6,665.178 km
Eccentricity
0.00016
Inclination
97.2879°
RAAN
321.3081°
Arg. of periapsis
87.8013°
True anomaly
137.86839°
Mean anomaly
137.856°
Eccentric anomaly
137.8622°
Mean motion
3.98865 °/min
Orbital period
90.26 mins
BSTAR
-0.0058669
Loading maneuver chart data...
Computing Atmospheric mass density...
Loading historical data...
Loading historical data...
Loading historical data...
Loading historical data...
Loading historical data...
Loading historical data...
Loading historical data...

Documentation

Showing up to 5 results
|